| time (UTC) | temp F | wind direction | speed MPH | gust MPH | rain 1hr in | rain 24hr in | rain mn in | humidity % | barometer mb |
| 20260504050012 | 47 | 209 | 0.0 | 0.0 | 0.00 | 0.00 | 0.00 | 71 | 1016.7 |
| 20260504044515 | 47 | 209 | 0.0 | 0.0 | 0.00 | 0.00 | 0.00 | 72 | 1016.7 |
| 20260504043010 | 47 | 209 | 0.0 | 0.0 | 0.00 | 0.00 | 0.00 | 71 | 1016.6 |
| 20260504041509 | 47 | 209 | 0.0 | 0.0 | 0.00 | 0.00 | 0.00 | 68 | 1016.6 |
| 20260504040008 | 47 | 209 | 0.0 | 0.0 | 0.00 | 0.00 | 0.00 | 71 | 1016.5 |
| 20260504034508 | 47 | 209 | 0.0 | 0.0 | 0.00 | 0.00 | 0.00 | 72 | 1016.4 |
| 20260504033008 | 46 | 209 | 0.0 | 0.0 | 0.00 | 0.00 | 0.00 | 71 | 1016.5 |
| 20260504031507 | 46 | 209 | 0.0 | 0.0 | 0.00 | 0.00 | 0.00 | 70 | 1016.6 |
| 20260504030005 | 47 | 209 | 0.0 | 0.0 | 0.00 | 0.00 | 0.00 | 68 | 1016.5 |
| 20260504024504 | 47 | 209 | 0.0 | 0.0 | 0.00 | 0.00 | 0.00 | 68 | 1016.5 |
| 20260504023003 | 47 | 209 | 0.0 | 0.0 | 0.00 | 0.00 | 0.00 | 68 | 1016.5 |
| 20260504021601 | 48 | 209 | 0.0 | 0.0 | 0.00 | 0.00 | 0.00 | 66 | 1016.4 |
| 20260504020056 | 48 | 209 | 0.0 | 0.0 | 0.00 | 0.00 | 0.00 | 64 | 1016.3 |
| 20260504014600 | 49 | 209 | 0.0 | 0.0 | 0.00 | 0.00 | 0.00 | 63 | 1016.3 |
| 20260504013056 | 50 | 209 | 0.0 | 0.0 | 0.00 | 0.00 | 0.00 | 61 | 1016.2 |
| 20260504011549 | 51 | 209 | 0.0 | 0.0 | 0.00 | 0.00 | 0.00 | 59 | 1016.1 |
| 20260504010051 | 52 | 209 | 0.0 | 0.0 | 0.00 | 0.00 | 0.00 | 57 | 1016.2 |
| 20260504004539 | 53 | 209 | 0.0 | 0.0 | 0.00 | 0.00 | 0.00 | 54 | 1016.1 |
| 20260504003041 | 54 | 209 | 0.0 | 0.0 | 0.00 | 0.00 | 0.00 | 50 | 1015.9 |
| 20260504001540 | 56 | 209 | 0.0 | 0.0 | 0.00 | 0.00 | 0.00 | 51 | 1015.9 |
| 20260504000039 | 57 | 209 | 0.0 | 0.0 | 0.00 | 0.00 | 0.00 | 46 | 1015.6 |
| 20260503234525 | 58 | 209 | 0.0 | 0.0 | 0.00 | 0.00 | 0.00 | 41 | 1015.5 |
| 20260503233024 | 59 | 209 | 0.0 | 0.0 | 0.00 | 0.00 | 0.00 | 39 | 1015.4 |
| 20260503231520 | 60 | 209 | 0.0 | 0.0 | 0.00 | 0.00 | 0.00 | 37 | 1015.3 |
| 20260503230017 | 61 | 209 | 0.0 | 0.0 | 0.00 | 0.00 | 0.00 | 35 | 1015.3 |
| 20260503224514 | 62 | 209 | 0.0 | 0.0 | 0.00 | 0.00 | 0.00 | 32 | 1015.5 |
| 20260503223011 | 62 | 274 | 0.0 | 2.0 | 0.00 | 0.00 | 0.00 | 31 | 1015.5 |
| 20260503221508 | 63 | 219 | 0.0 | 4.0 | 0.00 | 0.00 | 0.00 | 30 | 1015.6 |
| 20260503220005 | 65 | 152 | 0.0 | 1.0 | 0.00 | 0.00 | 0.00 | 28 | 1015.6 |
| 20260503214518 | 66 | 333 | 0.0 | 2.0 | 0.00 | 0.00 | 0.00 | 28 | 1015.6 |
| 20260503213005 | 67 | 331 | 0.0 | 3.0 | 0.00 | 0.00 | 0.00 | 25 | 1015.5 |
| 20260503211506 | 68 | 331 | 0.0 | 3.0 | 0.00 | 0.00 | 0.00 | 25 | 1015.7 |
| 20260503210013 | 68 | 314 | 0.0 | 5.0 | 0.00 | 0.00 | 0.00 | 25 | 1015.6 |
| 20260503204509 | 69 | 163 | 1.0 | 3.0 | 0.00 | 0.00 | 0.00 | 27 | 1015.8 |
| 20260503203003 | 69 | 346 | 0.0 | 6.0 | 0.00 | 0.00 | 0.00 | 25 | 1015.7 |
| 20260503201503 | 70 | 319 | 0.0 | 2.0 | 0.00 | 0.00 | 0.00 | 24 | 1015.8 |
| 20260503200001 | 70 | 338 | 0.0 | 4.0 | 0.00 | 0.00 | 0.00 | 25 | 1016.0 |
| 20260503194626 | 69 | 278 | 1.0 | 4.0 | 0.00 | 0.00 | 0.00 | 25 | 1016.4 |
| 20260503194501 | 69 | 267 | 1.0 | 4.0 | 0.00 | 0.00 | 0.00 | 24 | 1016.3 |
| 20260503193100 | 69 | 342 | 0.0 | 4.0 | 0.00 | 0.00 | 0.00 | 26 | 1016.6 |
| 20260503191604 | 69 | 355 | 0.0 | 5.0 | 0.00 | 0.00 | 0.00 | 24 | 1016.7 |
| 20260503184600 | 67 | 184 | 0.0 | 7.0 | 0.00 | 0.00 | 0.00 | 27 | 1017.1 |
| 20260503183106 | 68 | 223 | 0.0 | 3.0 | 0.00 | 0.00 | 0.00 | 25 | 1017.3 |
| 20260503181556 | 68 | 250 | 0.0 | 5.0 | 0.00 | 0.00 | 0.00 | 27 | 1017.5 |
| 20260503180105 | 67 | 311 | 1.0 | 3.0 | 0.00 | 0.00 | 0.00 | 27 | 1017.5 |
| 20260503174551 | 67 | 307 | 1.0 | 5.0 | 0.00 | 0.00 | 0.00 | 27 | 1017.7 |
| 20260503173137 | 65 | 21 | 0.0 | 7.0 | 0.00 | 0.00 | 0.00 | 29 | 1017.6 |
| 20260503171548 | 64 | 256 | 1.0 | 8.0 | 0.00 | 0.00 | 0.00 | 30 | 1017.9 |
| 20260503100113 | 41 | 46 | 0.0 | 0.0 | 0.00 | 0.00 | 0.00 | 73 | 1016.7 |
| 20260503081552 | 46 | 46 | 0.0 | 0.0 | 0.00 | 0.00 | 0.00 | 63 | 1015.7 |
| 20260503071541 | 48 | 46 | 0.0 | 2.0 | 0.00 | 0.00 | 0.00 | 59 | 1015.1 |